Weather in Narynkol

Kazakhstan     42°43′35″N   80°10′34″E
temp.,
°C
wind,
m/s
gust,
m/s
humid.,
%
clouds,
%
prec.,
mm/h
press.,
hPa
HPBL,
m
14 april, wed
wed1400:00+4s22483 0.0 102423
03:00+3s224430 0.0 102421
06:00+2s124077 0.0 102515
09:00+6ne2140100 0.0 1024411
12:00+9ene2236100 0.0 10211029
15:00+12ene332952 0.0 10181450
18:00+11ene333420 0.0 1018897
21:00+6s224710 0.0 102026
15 april, thu
thu1500:00+5ssw223929 0.0 102017
03:00+4ssw1136100 0.0 101911
06:00+3ssw113540 0.0 101910
09:00+7ne11335 0.0 1018329
12:00+12ne21290 0.0 1015786
15:00+14nne11242 0.0 10131233
18:00+14ese2331100 0.0 1012321
21:00+9s224539 0.1 101521
16 april, fri
fri1600:00+8ssw2244100 0.1 101622
03:00+6ssw2241100 0.0 101515
06:00+5ssw214195 0.0 101612
09:00+10n113592 0.0 1015357
12:00+14nne113041 0.0 1013845
15:00+16ne112573 0.0 10111620
18:00+15se1231100 0.0 1010156
21:00+11nw235893 0.6 1015185
17 april, sat
sat1700:00+8ene0169100 0.8 101621
03:00+7sw1167100 0.0 101511
06:00+6ssw1160100 0.1 101510
09:00+9nne1155100 0.0 1015509
12:00+13nne1143100 0.0 10111289
15:00+14nne123999 0.2 10101870
18:00+11wsw3358100 1.3 1012537
21:00+8e3577100 0.4 1016228
18 april, sun
sun1800:00+8w0177100 0.5 1015215
03:00+7nnw0081100 0.0 101412
06:00+6ese118571 0.3 101311
09:00+8ne2279100 0.9 1014628
12:00+7nnw2278100 2.1 1013704
15:00+5wsw5689100 1.8 1013545
18:00+5w6979100 1.4 1015733
21:00+4wsw2480100 1.3 1017303